Location: Recife
(8.0585°S, 34.8848°W)
Time: 19:15:30
(UTC-03:00)

N. Korean satellite - Pass Details

Date: 28 September 2021
Orbit: 450 x 495 km, 97.3° (Epoch: 21 October)

Event Time Altitude Azimuth Distance (km) Brightness Sun altitude
Rises 04:02:45 0° 14° (NNE) 2,553 10.4 -16.4°
Reaches altitude 10° 04:04:49 10° 16° (NNE) 1,681 9.4 -15.9°
Maximum altitude 04:08:26 74° 101° (E) 519 6.8 -15.0°
Drops below altitude 10° 04:12:05 10° 186° (S) 1,700 9.3 -14.1°
Sets 04:14:10 0° 188° (S) 2,586 10.2 -13.5°
